Satellite: FO-70
Catalog number: 37380
Epoch time:      12179.47554455
Element set:    0223
Inclination:      071.9743 deg
RA of node:       289.8278 deg
Eccentricity:    0.0018623
Arg of perigee:   295.0880 deg
Mean anomaly:     064.8372 deg
Mean motion:   14.76843679 rev/day
Decay rate:       2.08e-06 rev/day^2
Epoch rev:           03750
Checksum:              341

Satellite: ALMASAT-1
Catalog number: 38078
Epoch time:      12229.48331374
Element set:     480
Inclination:      069.4870 deg
RA of node:       180.5009 deg
Eccentricity:    0.0750220
Arg of perigee:   173.3432 deg
Mean anomaly:     187.8359 deg
Mean motion:   14.11048841 rev/day
Decay rate:     1.2943e-04 rev/day^2
Epoch rev:            2605
Checksum:              297

Satellite: XATCOBEO
Catalog number: 38082
Epoch time:      12229.62974209
Element set:     477
Inclination:      069.4864 deg
RA of node:       176.5690 deg
Eccentricity:    0.0719053
Arg of perigee:   171.2363 deg
Mean anomaly:     190.2146 deg
Mean motion:   14.20533102 rev/day
Decay rate:     3.1972e-04 rev/day^2
Epoch rev:            2616
Checksum:              301

/EX
SB KEPS @ AMSAT  $ORB12229.W
Orbital Elements  12229.WEATHER

HR AMSAT ORBITAL ELEMENTS FOR WEATHER SATELLITES
FROM WA5QGD FORT WORTH,TX August 16, 2012
Send SUBSCRIBE KEPS/UNSUBSCRIBE KEPS to majordomo at amsat.org only
BID: ORB12229.W
TO ALL RADIO AMATEURS BT

Satellite: NOAA-10
Catalog number: 16969
Epoch time:      12228.87639980
Element set:    0030
Inclination:      098.5787 deg
RA of node:       256.8605 deg
Eccentricity:    0.0013073
Arg of perigee:   061.8188 deg
Mean anomaly:     298.4287 deg
Mean motion:   14.27569766 rev/day
Decay rate:        9.1e-07 rev/day^2
Epoch rev:           34838
Checksum:              362

Satellite: NOAA-11
Catalog number: 19531
Epoch time:      12228.75525763
Element set:    0023
Inclination:      098.7307 deg
RA of node:       312.6573 deg
Eccentricity:    0.0011940
Arg of perigee:   056.2276 deg
Mean anomaly:     304.0037 deg
Mean motion:   14.14975931 rev/day
Decay rate:      -1.39e-06 rev/day^2
Epoch rev:           23293
Checksum:              289

Satellite: NOAA-12
Catalog number: 21263
Epoch time:      12228.98984261
Element set:    0525
Inclination:      098.7266 deg
RA of node:       250.3684 deg
Eccentricity:    0.0014641
Arg of perigee:   030.0392 deg
Mean anomaly:     330.1628 deg
Mean motion:   14.25512101 rev/day
Decay rate:        4.1e-07 rev/day^2
Epoch rev:           10507
Checksum:              264

Satellite: MET-3/5
Catalog number: 21655
Epoch time:      12229.46752842
Element set:     481
Inclination:      082.5553 deg
RA of node:       109.6108 deg
Eccentricity:    0.0013704
Arg of perigee:   167.3377 deg
Mean anomaly:     192.8092 deg
Mean motion:   13.17035748 rev/day
Decay rate:       4.55e-06 rev/day^2
Epoch rev:             982
Checksum:              309

Satellite: MET-2/21
Catalog number: 22782
Epoch time:      12229.46404402
Element set:     501
Inclination:      082.5504 deg
RA of node:       344.6832 deg
Eccentricity:    0.0022288
Arg of perigee:   347.7647 deg
Mean anomaly:     012.2978 deg
Mean motion:   13.83688192 rev/day
Decay rate:       1.07e-06 rev/day^2
Epoch rev:           95750
Checksum:              308

Satellite: OKEAN-4
Catalog number: 23317
Epoch time:      12229.78966240
Element set:     972
Inclination:      082.5433 deg
RA of node:       334.5419 deg
Eccentricity:    0.0022192
Arg of perigee:   147.6254 deg
Mean anomaly:     212.6329 deg
Mean motion:   14.83896574 rev/day
Decay rate:       6.63e-06 rev/day^2
Epoch rev:           96379
Checksum:              334

Satellite: NOAA-14
Catalog number: 23455
Epoch time:      12228.91531147
Element set:    0006
Inclination:      098.8256 deg
RA of node:       311.6589 deg
Eccentricity:    0.0009823
Arg of perigee:   141.4792 deg
Mean anomaly:     218.7079 deg
Mean motion:   14.13866378 rev/day
Decay rate:        3.5e-07 rev/day^2
Epoch rev:           90923
Checksum:              320

Satellite: NOAA-15
Catalog number: 25338
Epoch time:      12228.80590692
Element set:    0366
Inclination:      098.6950 deg
RA of node:       215.1679 deg
Eccentricity:    0.0009727
Arg of perigee:   298.6808 deg
Mean anomaly:     061.3389 deg
Mean motion:   14.25105829 rev/day
Decay rate:        2.2e-07 rev/day^2
Epoch rev:           74134
Checksum:              331

Satellite: RESURS
Catalog number: 25394
Epoch time:      12228.97414276
Element set:    0162
Inclination:      098.3255 deg
RA of node:       214.0788 deg
Eccentricity:    0.0002425
Arg of perigee:   066.4034 deg
Mean anomaly:     293.7395 deg
Mean motion:   14.24292186 rev/day
Decay rate:        9.0e-08 rev/day^2
Epoch rev:           73291
Checksum:              304

Satellite: FENGYUN1
Catalog number: 25730
Epoch time:      12228.90744924
Element set:    0684
Inclination:      098.8489 deg
RA of node:       186.8641 deg
Eccentricity:    0.0017638
Arg of perigee:   188.7281 deg
Mean anomaly:     171.3562 deg
Mean motion:   14.09707748 rev/day
Decay rate:       7.03e-06 rev/day^2
Epoch rev:           68302
Checksum:              340

Satellite: OKEAN-0
Catalog number: 25860
Epoch time:      12228.92057849
Element set:    0726
Inclination:      097.9412 deg
RA of node:       190.3626 deg
Eccentricity:    0.0001882
Arg of perigee:   065.0638 deg
Mean anomaly:     295.0765 deg
Mean motion:   14.74267268 rev/day
Decay rate:       4.20e-06 rev/day^2
Epoch rev:           70337
Checksum:              318

Satellite: NOAA-16
Catalog number: 26536
Epoch time:      12228.81157771
Element set:    0855
Inclination:      099.0902 deg
RA of node:       271.8427 deg
Eccentricity:    0.0009771
Arg of perigee:   276.1527 deg
Mean anomaly:     083.8506 deg
Mean motion:   14.12770343 rev/day
Decay rate:       3.14e-06 rev/day^2
Epoch rev:           61345
Checksum:              312

Satellite: NOAA-17
Catalog number: 27453
Epoch time:      12228.79880289
Element set:    0803
Inclination:      098.3336 deg
RA of node:       252.8181 deg
Eccentricity:    0.0011440
Arg of perigee:   347.0960 deg
Mean anomaly:     012.9919 deg
Mean motion:   14.24470777 rev/day
Decay rate:       2.04e-06 rev/day^2
Epoch rev:           52724
Checksum:              314

Satellite: NOAA-18
Catalog number: 28654
Epoch time:      12228.95683794
Element set:    0285
Inclination:      099.0505 deg
RA of node:       187.5590 deg
Eccentricity:    0.0014362
Arg of perigee:   350.6076 deg
Mean anomaly:     009.4863 deg
Mean motion:   14.11685275 rev/day
Decay rate:       2.19e-06 rev/day^2
Epoch rev:           37299
Checksum:              343

Satellite: NOAA-19
Catalog number: 33591
Epoch time:      12228.90724308
Element set:    0474
Inclination:      098.8653 deg
RA of node:       167.9638 deg
Eccentricity:    0.0013429
Arg of perigee:   209.8773 deg
Mean anomaly:     150.1680 deg
Mean motion:   14.11371043 rev/day
Decay rate:        9.2e-07 rev/day^2
Epoch rev:           18143
Checksum:              313

/EX
SB KEPS @ AMSAT  $ORB12229.M
Orbital Elements  12229.MISC

HR AMSAT ORBITAL ELEMENTS FOR MANNED AND MISCELLANEOUS SATELLITES
FROM WA5QGD FORT WORTH,TX August 16, 2012
Send SUBSCRIBE KEPS/UNSUBSCRIBE KEPS to majordomo at amsat.org only
BID: ORB12229.M
TO ALL RADIO AMATEURS BT

Satellite: HUBBLE
Catalog number: 20580
Epoch time:      12229.89786683
Element set:      54
Inclination:      028.4702 deg
RA of node:       106.1921 deg
Eccentricity:    0.0003073
Arg of perigee:   343.1305 deg
Mean anomaly:     016.9198 deg
Mean motion:   15.02693548 rev/day
Decay rate:      1.341e-05 rev/day^2
Epoch rev:            2387
Checksum:              284

Satellite: ISS
Catalog number: 25544
Epoch time:      12230.05386072
Element set:     125
Inclination:      051.6439 deg
RA of node:       178.3849 deg
Eccentricity:    0.0007000
Arg of perigee:   326.9363 deg
Mean anomaly:     144.0762 deg
Mean motion:   15.53409523 rev/day
Decay rate:     -9.084e-05 rev/day^2
Epoch rev:           78748
Checksum:              299

Satellite: CO-58
Catalog number: 28895
Epoch time:      12229.63913599
Element set:     252
Inclination:      097.9075 deg
RA of node:       093.2308 deg
Eccentricity:    0.0017016
Arg of perigee:   324.8760 deg
Mean anomaly:     035.1340 deg
Mean motion:   14.60706831 rev/day
Decay rate:       3.74e-06 rev/day^2
Epoch rev:           36248
Checksum:              321

Satellite: FALCON
Catalog number: 30776
Epoch time:      12228.58682409
Element set:     414
Inclination:      035.4352 deg
RA of node:       273.9293 deg
Eccentricity:    0.0002324
Arg of perigee:   210.4150 deg
Mean anomaly:     149.6432 deg
Mean motion:   15.07946308 rev/day
Decay rate:      2.846e-05 rev/day^2
Epoch rev:           29922
Checksum:              294

Satellite: MAST
Catalog number: 31126
Epoch time:      12229.91063345
Element set:     533
Inclination:      097.8731 deg
RA of node:       237.4621 deg
Eccentricity:    0.0092464
Arg of perigee:   281.7126 deg
Mean anomaly:     077.3712 deg
Mean motion:   14.54227122 rev/day
Decay rate:       3.52e-06 rev/day^2
Epoch rev:           28309
Checksum:              281

Satellite: CAPE1
Catalog number: 31130
Epoch time:      12228.48209117
Element set:    0544
Inclination:      097.8831 deg
RA of node:       232.4680 deg
Eccentricity:    0.0099987
Arg of perigee:   299.8313 deg
Mean anomaly:     059.2951 deg
Mean motion:   14.53028116 rev/day
Decay rate:       4.46e-06 rev/day^2
Epoch rev:           28238
Checksum:              315

